TimeMDT,TemperatureF,Dew PointF,Humidity,Sea Level PressureIn,VisibilityMPH,Wind Direction,Wind SpeedMPH,Gust SpeedMPH,PrecipitationIn,Events,Conditions,WindDirDegrees,DateUTC
12:53 AM,45.0,25.0,46,29.55,10.0,SW,8.1,-,N/A,,Mostly Cloudy,230,2013-04-08 06:53:00
1:53 AM,42.1,24.1,49,29.56,10.0,WSW,10.4,-,N/A,,Clear,250,2013-04-08 07:53:00
2:53 AM,39.0,24.1,55,29.55,10.0,WNW,3.5,-,N/A,,Clear,290,2013-04-08 08:53:00
3:53 AM,32.0,23.0,69,29.54,10.0,West,5.8,-,N/A,,Clear,260,2013-04-08 09:53:00
4:53 AM,37.9,26.1,62,29.55,10.0,SW,11.5,-,N/A,,Clear,230,2013-04-08 10:53:00
5:53 AM,37.0,26.1,65,29.56,10.0,WSW,6.9,-,N/A,,Partly Cloudy,250,2013-04-08 11:53:00
6:53 AM,36.0,26.1,67,29.61,10.0,North,10.4,-,N/A,,Scattered Clouds,360,2013-04-08 12:53:00
7:27 AM,37.4,32.0,81,29.69,10.0,North,17.3,-,N/A,,Overcast,10,2013-04-08 13:27:00
7:36 AM,35.6,28.4,75,29.69,10.0,NNE,19.6,27.6,N/A,,Overcast,20,2013-04-08 13:36:00
7:53 AM,32.0,26.1,79,29.68,10.0,NNE,23.0,28.8,N/A,,Overcast,20,2013-04-08 13:53:00
8:53 AM,30.0,24.1,79,29.71,10.0,NNE,21.9,-,N/A,,Overcast,20,2013-04-08 14:53:00
9:36 AM,30.2,23.0,75,29.74,10.0,NNE,23.0,26.5,N/A,,Overcast,30,2013-04-08 15:36:00
9:45 AM,28.4,21.2,74,29.75,10.0,NE,19.6,26.5,N/A,,Overcast,40,2013-04-08 15:45:00
9:53 AM,28.9,21.9,75,29.75,10.0,NNE,18.4,25.3,N/A,,Overcast,30,2013-04-08 15:53:00
10:53 AM,28.0,21.0,75,29.78,10.0,NNE,24.2,31.1,N/A,,Overcast,30,2013-04-08 16:53:00
11:53 AM,26.1,19.9,78,29.80,3.0,NNE,24.2,34.5,0.00,Snow,Light Snow,30,2013-04-08 17:53:00
12:00 PM,26.6,19.4,74,29.78,4.0,NNE,25.3,34.5,0.00,Snow,Light Snow,30,2013-04-08 18:00:00
12:25 PM,26.6,19.4,74,29.78,2.5,NNE,20.7,32.2,0.00,Snow,Light Snow,30,2013-04-08 18:25:00
12:53 PM,26.1,19.9,78,29.79,1.8,NNE,26.5,33.4,0.00,Snow,Light Snow,30,2013-04-08 18:53:00
1:53 PM,25.0,19.0,78,29.81,3.0,NNE,26.5,35.7,0.00,Snow,Light Snow,20,2013-04-08 19:53:00
2:53 PM,23.0,15.1,72,29.86,10.0,NNE,26.5,34.5,0.00,,Overcast,30,2013-04-08 20:53:00
3:46 PM,19.4,15.8,86,29.84,2.0,NNE,23.0,-,0.01,Snow,Light Snow,30,2013-04-08 21:46:00
3:53 PM,19.9,14.0,78,29.94,2.0,NNE,20.7,27.6,0.01,Snow,Light Snow,30,2013-04-08 21:53:00
4:13 PM,19.4,14.0,80,29.85,1.0,NNE,24.2,28.8,0.01,Snow,Light Snow,30,2013-04-08 22:13:00
4:21 PM,19.4,15.8,86,29.85,0.5,NNE,19.6,28.8,0.02,Snow,Snow,30,2013-04-08 22:21:00
4:42 PM,19.4,15.8,86,29.87,0.2,NE,17.3,25.3,0.04,Snow,Heavy Snow,40,2013-04-08 22:42:00
4:53 PM,19.0,15.1,85,29.96,0.2,NNE,18.4,-,0.05,Fog-Snow,Snow,20,2013-04-08 22:53:00
5:01 PM,19.4,15.8,86,29.89,0.2,NNE,13.8,24.2,0.01,Fog-Snow,Snow,20,2013-04-08 23:01:00
5:53 PM,18.0,14.0,84,29.99,0.2,NNE,17.3,-,0.07,Fog-Snow,Snow,30,2013-04-08 23:53:00
6:36 PM,17.6,12.2,79,29.93,0.5,NE,19.6,26.5,0.05,Fog-Snow,Snow,40,2013-04-09 00:36:00
6:53 PM,17.1,12.0,81,30.02,0.5,NE,20.7,28.8,0.06,Snow,Snow,40,2013-04-09 00:53:00
7:01 PM,17.6,12.2,79,29.93,0.2,NE,21.9,28.8,0.00,Snow,Heavy Snow,40,2013-04-09 01:01:00
7:33 PM,15.8,12.2,86,29.94,0.5,NE,16.1,-,0.04,Fog-Snow,Snow,40,2013-04-09 01:33:00
7:53 PM,16.0,10.9,81,30.06,0.5,NNE,17.3,25.3,0.05,Snow,Snow,30,2013-04-09 01:53:00
8:10 PM,15.8,12.2,86,29.96,0.5,NE,11.5,20.7,0.02,Snow,Light Snow,40,2013-04-09 02:10:00
8:53 PM,15.1,10.9,84,30.10,1.0,NNE,19.6,29.9,0.06,Snow,Light Snow,30,2013-04-09 02:53:00
9:11 PM,15.8,10.4,79,29.97,2.0,NE,18.4,26.5,0.01,Snow,Light Snow,40,2013-04-09 03:11:00
9:32 PM,15.8,10.4,79,29.98,2.0,NE,18.4,28.8,0.01,Snow,Light Snow,40,2013-04-09 03:32:00
9:46 PM,15.8,10.4,79,29.98,4.0,NE,21.9,27.6,0.01,Snow,Light Snow,40,2013-04-09 03:46:00
9:53 PM,15.1,9.0,77,30.12,4.0,NE,23.0,32.2,0.01,Snow,Light Snow,40,2013-04-09 03:53:00
10:04 PM,14.0,8.6,79,29.98,2.5,NE,25.3,34.5,0.00,Snow,Light Snow,40,2013-04-09 04:04:00
10:14 PM,14.0,8.6,79,29.99,1.2,NE,26.5,32.2,0.00,Snow,Light Snow,40,2013-04-09 04:14:00
10:42 PM,14.0,8.6,79,29.98,1.0,NE,20.7,27.6,0.02,Snow,Light Snow,40,2013-04-09 04:42:00
10:49 PM,14.0,8.6,79,29.99,0.8,NE,23.0,33.4,0.02,Snow,Light Snow,40,2013-04-09 04:49:00
10:53 PM,14.0,9.0,80,30.13,0.8,NE,20.7,33.4,0.02,Snow,Light Snow,40,2013-04-09 04:53:00
11:05 PM,14.0,8.6,79,30.00,0.8,NE,15.0,-,0.02,Snow,Light Snow,40,2013-04-09 05:05:00
11:11 PM,14.0,8.6,79,30.01,1.0,NE,23.0,-,0.02,Snow,Light Snow,40,2013-04-09 05:11:00
11:27 PM,12.2,8.6,85,30.02,0.8,NE,19.6,-,0.03,Snow,Light Snow,40,2013-04-09 05:27:00
11:53 PM,12.9,8.1,81,30.18,0.8,NNE,26.5,33.4,0.05,Snow,Light Snow,30,2013-04-09 05:53:00